sat.trackr.live / text

‹ back to catalog

STARLINK-37726

NORAD 69124 · 2026-110A

PAYLOAD ACTIVE UNKNOWN

§ Identity

Operator
Country
US
Launch date
2026-05-20
Launch site
AFWTR
Launch vehicle
Mass (kg)
RCS (m²)

Purposes: comms

External: N2YO · Heavens-Above · Gunter

§ Orbital elements

Epoch: 2026-09-19T23:48:52.932384Z

Period
93.91 min
Inclination
97.2851°
Eccentricity
0.0000808
Mean motion
15.33455073 rev/d
Perigee alt
465.0 km
Apogee alt
466.1 km
Semi-major
6,843.7 km
B*
5.9585e-4
RAAN
98.1334°
Arg perigee
122.0480°
Mean anomaly
238.0841°
Rev number
2,014

§ Raw data

STARLINK-377261 69124U 26110A   26262.99227931  .00019216  00000+0  59585-3 0  99952 69124  97.2851  98.1334 0000808 122.0480 238.0841 15.33455073 20146

JSON: /api/v1/satellites/69124 · /tle

For live sub-satellite position, see the globe view (requires WebGL).

§ Visibility from observer

Set your observer location to see the next 7 days of passes ≥ 10°. The values pass through the URL so the page stays shareable.

No JS? Fill the form by hand. The geolocation button needs JavaScript.